Location: Astronomy Club of Akron Observatory
(40.9700°N, 81.5606°W)
Time: 15:37:31
(UTC-04:00)

Cosmos 1441 Rocket - Visible Passes

Search period start: 22 August 2014 00:00
Search period end: 01 September 2014 00:00
Orbit: 508 x 558 km, 81.1° (Epoch: 21 August)

Date Brightness Start Highest point End Pass type
(mag) Time Alt. Az. Time Alt. Az. Time Alt. Az.
22 Aug 4.8 21:29:27 19° E 21:29:27 19° E 21:32:06 10° NE visible
22 Aug 5.0 23:04:47 28° W 23:05:17 29° WNW 23:08:48 10° NNW visible
23 Aug 4.8 21:19:21 18° E 21:19:45 18° E 21:22:30 10° NE visible
23 Aug 5.0 22:54:40 26° WSW 22:55:44 30° WNW 22:59:17 10° NNW visible
24 Aug 4.8 21:09:07 16° ESE 21:10:13 18° E 21:12:54 10° NE visible
24 Aug 5.0 22:44:26 22° WSW 22:46:11 31° WNW 22:49:45 10° NNW visible
25 Aug 4.8 20:58:42 13° ESE 21:00:40 17° E 21:03:18 10° NE visible
25 Aug 5.0 22:33:59 16° SW 22:36:38 32° WNW 22:40:12 10° N visible
26 Aug 4.9 20:48:34 10° SE 20:51:08 17° E 20:53:41 10° NE visible
26 Aug 5.0 22:23:29 10° SW 22:27:05 32° WNW 22:30:40 10° N visible
27 Aug 4.9 20:39:06 10° SE 20:41:35 16° E 20:44:04 10° NE visible
27 Aug 5.0 22:13:55 10° SW 22:17:32 33° WNW 22:21:08 10° N visible
28 Aug 4.9 20:29:38 10° SE 20:32:03 16° E 20:34:27 10° NE visible
28 Aug 4.9 22:04:20 10° SW 22:07:58 34° WNW 22:11:35 10° N visible
29 Aug 4.9 21:54:46 10° SW 21:58:25 35° WNW 22:02:02 10° N visible
30 Aug 4.9 21:45:11 10° SW 21:48:51 36° WNW 21:52:29 10° N visible
31 Aug 4.8 21:35:37 10° SW 21:39:17 37° WNW 21:42:56 10° N visible
